Hourly Data Report for July 09, 2017

QUALICUM BEACH AIRPORT
BRITISH COLUMBIA

49°20'14.000" N
124°23'38.000" W
58.20 m
1026562
71766
VOQ

Download Data

Hourly Data (July 2017)
Hourly Data Report for July 9, 2017
TIME
LST
Temp Definition
°C
Dew Point Definition
°C
Rel Hum Definition
%
Precip. Amount Definition
mm

Wind Dir Definition
10's deg

Wind Spd Definition
km/h
Visibility Definition
km
Stn Press Definition
kPa
Hmdx Definition


Wind Chill Definition


Weather Definition


00:00 18.3 16.6 90 0.0 0 1   100.94     LegendNANA
01:00 17.2 15.5 90 0.0 0 1   100.98     LegendNANA
02:00 17.3 15.9 91 0.0 31 1   100.99     LegendNANA
03:00 17.0 15.4 90 0.0 15 1   101.01     LegendNANA
04:00 16.7 15.3 91 0.0 0 1   101.02     LegendNANA
05:00 17.2 15.0 87 0.0 17 4   101.05     LegendNANA
06:00 18.2 14.6 80 0.0 26 2   101.09     LegendNANA
07:00 19.0 14.2 74 0.0 14 3   101.10     LegendNANA
08:00 20.0 13.7 67 0.0 8 5   101.15     LegendNANA
09:00 19.1 14.9 77 0.0 10 8   101.19     LegendNANA
10:00 19.6 14.3 71 0.0 11 10   101.19     LegendNANA
11:00 20.6 13.8 65 0.0 10 10   101.23     LegendNANA
12:00 23.5 14.0 55 0.0 11 8   101.21 27   LegendNANA
13:00 22.7 12.6 53 0.0 8 11   101.20 25   LegendNANA
14:00 24.1 12.9 50 0.0 7 7   101.15 27   LegendNANA
15:00 23.1 12.7 52 0.0 35 9   101.16 26   LegendNANA
16:00 24.0 13.5 52 0.0 32 12   101.11 27   LegendNANA
17:00 22.2 13.5 58 0.0 33 16   101.10 25   LegendNANA
18:00 22.4 12.9 55 0.0 32 15   101.05 25   LegendNANA
19:00 21.6 11.9 54 0.0 32 15   101.04     LegendNANA
20:00 19.9 12.4 62 0.0 30 11   101.00     LegendNANA
21:00 19.5 10.5 56 0.0 28 8   101.03     LegendNANA
22:00 17.4 10.9 65 0.0 30 1   101.06     LegendNANA
23:00 17.5 12.1 71 0.0 33 12   101.05     LegendNANA

Notes on Data Quality.

Legend

  • E = Estimated
  • M = Missing
  • NA = Not Available*
  • [empty] = Indicates an unobserved value
Date modified: